Location: ????????
(55.6333°N, 37.7000°E)
Time: 08:09:53
(UTC+00:00)

SL-24 R/B - Pass Details

Date: 19 May 2025
Orbit: 624 x 1072 km, 98.1° (Epoch: 24 June)

Event Time Altitude Azimuth Distance (km) Brightness Sun altitude
Rises 19:19:49 0° 16° (NNE) 2,931 8.2 -9.8°
Reaches altitude 10° 19:22:01 10° 19° (NNE) 2,011 7.3 -10.0°
Maximum altitude 19:26:19 69° 104° (ESE) 682 4.1 -10.3°
Drops below altitude 10° 19:30:43 10° 188° (S) 2,061 6.2 -10.6°
Enters shadow 19:30:57 - 188° (S) 2,155 6.3 -10.6°
